Wind_Speed
26 26 27 28 28 29 29 30 30 30 32 33 34 35 36 37 38 38 38 37 37 38 38 39 39 40 40 40 40 41 41 43 44 44 46 47 47 47 47 48 49 49 50
25 26 27 28 28 28 29 30 30 31 31 33 34 34 35 36 36 37 37 37 38 38 40 40 40 41 40 40 41 41 42 44 45 46 47 48 48 48 48 49 49 50 50
26 27 28 29 29 29 30 30 31 32 32 33 35 35 35 35 37 37 37 38 38 39 40 41 41 42 41 42 42 42 44 45 47 48 48 48 49 49 50 50 49 49 49
26 27 28 28 29 30 30 31 32 32 33 34 34 35 35 36 37 38 38 39 39 40 41 41 42 42 42 42 43 44 46 47 48 49 49 49 50 50 50 49 49 48 48
27 28 28 29 29 30 31 32 32 33 33 33 34 35 36 36 37 37 38 38 39 40 40 41 42 42 43 43 44 46 47 48 49 50 50 50 50 50 50 49 48 47 48
28 29 30 30 31 31 32 32 33 33 34 35 36 37 38 38 38 38 38 38 39 40 41 42 43 43 44 44 45 47 48 50 51 51 51 51 51 50 49 48 47 47 47
29 30 31 32 33 33 34 34 35 35 36 37 37 38 39 39 39 39 39 40 40 41 42 43 44 45 45 46 46 48 49 51 52 53 52 51 51 50 49 48 48 48 48
31 31 32 32 33 34 35 36 37 37 37 37 38 38 38 38 39 40 40 41 42 43 43 44 44 45 45 46 47 48 50 51 52 52 52 52 51 50 49 49 49 49 49
31 31 32 33 34 35 36 36 37 37 37 37 38 38 38 39 39 40 41 42 42 43 44 44 45 45 46 47 49 50 50 51 51 52 51 51 51 50 50 50 50 50 49
32 33 33 34 34 35 35 36 36 37 37 38 39 39 39 40 40 42 43 43 43 43 43 45 46 47 48 49 51 51 51 51 51 51 51 50 50 50 50 51 51 51 50
33 33 34 35 35 36 36 36 37 37 38 39 39 39 40 41 42 42 43 43 44 44 45 46 47 48 50 50 51 51 51 52 52 51 51 51 51 51 51 51 52 51 50
33 34 35 35 36 36 36 36 37 37 38 38 39 40 40 41 42 42 42 43 44 45 46 47 48 49 49 50 51 52 52 52 52 52 51 51 52 52 51 52 52 52 51
33 34 35 36 36 36 36 36 37 38 39 40 40 40 41 42 42 43 43 44 45 46 47 48 48 48 49 50 51 52 52 52 52 51 51 52 53 52 52 52 51 52 52
34 35 35 35 36 36 36 37 38 39 40 41 41 41 42 42 43 43 44 45 46 47 48 48 48 48 49 50 51 52 53 53 53 52 53 53 53 53 52 52 51 51 51
35 36 36 36 36 37 38 38 39 40 41 41 41 42 42 43 44 45 46 47 47 48 48 49 49 50 51 52 52 53 53 53 53 53 54 53 52 52 51 50 50 49 49
37 37 38 37 38 38 38 39 40 41 42 42 43 43 43 44 44 45 46 47 48 48 49 49 50 51 52 53 53 53 53 53 53 53 53 53 52 50 49 48 48 48 49
39 39 39 40 40 40 40 40 41 42 43 43 44 44 44 45 46 46 47 48 49 49 50 51 52 52 53 53 54 54 53 53 53 53 52 52 51 50 49 48 48 48 48
40 40 40 41 41 41 41 42 42 43 44 44 45 45 46 47 48 48 49 50 50 50 51 52 53 54 54 54 54 53 53 53 53 53 52 51 50 49 48 48 48 48 47
41 41 41 41 41 42 42 43 44 45 45 46 46 47 48 49 49 50 51 51 51 51 52 53 54 54 54 54 54 53 53 53 53 53 51 50 49 48 48 48 47 47 46
42 42 42 42 43 43 44 45 46 47 47 47 48 48 49 50 50 51 52 53 53 53 53 53 54 54 55 54 54 54 54 53 53 52 51 50 49 48 48 48 47 46 45
43 44 44 45 45 46 47 48 48 48 48 49 50 50 51 51 52 52 53 54 54 54 54 54 55 55 55 55 54 54 53 53 52 51 50 49 48 48 48 47 46 45 44
46 46 46 47 47 48 49 49 50 50 50 50 51 52 52 53 54 54 54 55 55 55 56 56 57 56 56 55 55 54 53 52 51 51 49 48 48 47 47 46 45 44 43
48 48 48 49 49 50 50 51 51 51 52 52 53 53 53 53 54 55 55 56 56 57 57 58 58 57 56 55 54 53 52 51 50 50 49 48 47 47 46 45 44 42 41
49 50 50 50 50 51 51 51 51 52 52 53 53 54 54 54 55 56 57 57 57 57 58 57 57 56 54 53 52 51 51 50 49 48 47 46 45 44 43 42 41 39 38
50 50 51 51 51 51 51 52 52 52 53 53 54 54 55 56 56 57 57 58 58 58 57 56 55 54 52 51 50 49 49 48 46 46 44 43 42 41 39 38 38 37 36
51 51 51 51 51 51 52 52 53 54 55 55 56 56 57 57 57 57 58 58 58 57 56 54 53 52 50 49 48 47 46 45 44 43 42 40 40 38 37 36 35 34 33
Wind_Direction
294 293 293 293 294 293 294 295 294 292 292 292 291 293 294 295 295 294 294 293 293 294 295 295 296 297 297 297 298 297 296 297 298 298 298 299 299 298 297 297 296 295 294
295 293 292 292 294 294 294 293 294 295 295 295 296 297 297 297 297 296 294 293 294 294 294 295 296 297 297 297 297 297 297 298 299 299 299 299 299 299 298 298 297 296 295
297 295 294 294 295 296 295 293 294 295 295 295 296 298 298 297 297 296 294 294 293 293 294 295 296 296 297 297 297 297 299 300 300 300 301 301 301 300 300 299 298 297 296
298 297 296 297 297 297 297 296 295 295 296 296 297 298 298 298 297 296 295 295 294 295 296 296 296 296 297 297 298 300 301 301 302 302 303 303 302 302 301 300 298 297 296
299 297 297 298 297 297 297 297 296 296 297 297 297 298 298 299 299 298 297 297 298 298 298 298 298 298 299 299 300 301 302 302 303 303 303 303 303 302 301 300 298 298 297
301 299 297 297 297 297 297 297 297 297 296 297 297 298 299 300 300 299 298 298 299 299 299 300 300 301 301 301 301 302 302 302 303 303 304 304 303 302 301 300 300 299 298
300 300 299 299 298 298 298 297 297 296 297 298 298 299 299 300 299 298 298 299 300 300 300 301 301 302 302 302 302 303 304 304 304 305 305 305 304 303 302 301 301 301 301
300 300 299 298 297 297 297 297 297 297 298 298 299 300 301 301 301 301 301 300 300 301 301 302 303 303 303 303 304 305 305 305 305 305 305 305 305 304 303 302 302 302 302
300 300 300 299 298 297 298 298 298 298 298 299 300 301 302 302 301 301 301 301 301 301 302 303 304 303 304 304 304 305 305 305 305 306 306 305 305 304 304 303 303 303 302
300 300 299 299 298 298 298 299 299 300 300 300 301 301 301 301 300 300 301 302 302 302 302 303 304 305 304 304 305 305 305 305 305 306 306 306 305 304 303 303 303 303 302
302 302 302 301 300 299 298 299 300 300 301 301 302 301 302 302 302 302 302 303 303 303 303 304 305 305 306 306 306 306 306 306 306 306 306 306 305 304 303 303 303 303 303
302 303 303 302 301 301 300 300 301 302 302 303 303 302 303 304 304 304 304 304 304 304 304 305 305 305 306 307 307 306 306 307 306 306 306 306 305 304 303 303 303 303 303
303 303 304 304 303 303 302 301 301 302 303 303 303 303 304 305 305 306 305 305 305 305 305 305 305 305 307 308 308 308 308 307 307 306 306 306 306 305 303 302 302 302 303
304 305 305 305 305 304 303 303 303 303 304 304 304 304 305 306 306 306 306 306 306 305 305 305 306 307 308 309 309 308 308 308 308 307 307 307 306 305 303 302 302 302 302
302 305 305 306 306 305 305 304 303 303 303 304 305 305 306 307 307 307 307 307 306 306 306 307 307 308 308 308 309 308 308 308 308 308 308 307 307 306 304 303 303 303 303
301 303 305 305 305 305 304 303 303 303 303 303 304 304 306 306 307 307 307 307 306 306 306 307 308 308 309 309 309 309 309 309 309 309 308 308 307 306 305 304 303 303 304
299 301 303 304 304 303 302 302 302 302 303 304 304 305 306 307 307 307 307 306 306 306 306 307 308 309 309 309 309 309 309 309 309 309 309 309 308 307 306 305 304 304 304
298 300 302 302 302 301 301 301 301 302 303 304 305 305 306 307 307 307 307 306 306 306 306 307 308 309 309 309 309 309 309 309 309 310 309 308 308 307 307 306 304 304 304
296 298 300 301 301 301 301 301 301 303 304 304 304 305 305 306 306 306 306 306 305 305 306 307 308 309 309 309 309 309 309 309 309 309 309 308 307 307 307 307 306 305 305
294 296 298 299 299 300 300 301 302 303 303 303 303 304 305 305 305 306 305 305 305 305 305 306 307 308 309 309 309 309 309 309 309 309 308 308 307 307 307 307 307 306 305
293 294 296 297 298 299 300 300 300 301 302 302 303 304 304 304 304 305 305 304 304 305 305 305 306 307 308 308 308 308 308 309 309 308 308 307 306 306 306 306 306 306 305
292 293 294 296 297 297 298 299 300 301 302 303 303 304 304 304 304 304 305 305 304 304 305 306 306 307 307 307 308 308 307 307 308 308 308 307 306 306 307 307 307 306 306
292 293 294 295 296 296 297 298 299 300 302 303 304 304 304 304 304 304 305 305 305 305 305 306 306 306 306 307 307 308 307 307 307 308 308 307 306 305 306 306 306 306 306
292 292 293 294 295 296 296 297 299 300 302 303 304 304 304 304 304 304 304 305 305 305 305 306 306 307 307 306 307 307 307 307 307 308 308 307 307 307 307 306 307 307 306
291 292 293 294 295 295 296 296 298 300 301 302 303 304 304 305 305 305 305 305 306 306 306 306 306 306 306 306 307 307 308 308 308 308 308 308 308 308 308 308 308 307 307
290 291 292 293 294 294 295 296 298 299 301 302 303 303 303 304 304 305 305 306 307 307 307 306 306 305 305 306 307 307 307 308 308 308 308 308 308 307 307 307 307 308 308
Height
5682 5679 5677 5674 5671 5669 5666 5664 5661 5658 5655 5653 5650 5647 5644 5641 5637 5634 5631 5627 5624 5621 5617 5613 5608 5604 5599 5595 5590 5586 5582 5577 5573 5570 5563 5557 5551 5545 5539 5533 5527 5522 5516
5676 5673 5671 5668 5665 5662 5659 5657 5654 5651 5648 5645 5642 5639 5635 5632 5628 5625 5622 5618 5615 5611 5607 5603 5599 5594 5589 5585 5580 5576 5571 5566 5561 5557 5551 5545 5538 5532 5526 5520 5513 5507 5501
5669 5667 5664 5661 5658 5656 5653 5650 5647 5644 5641 5637 5634 5631 5627 5624 5620 5616 5613 5609 5605 5601 5597 5593 5588 5584 5579 5574 5570 5565 5559 5554 5548 5543 5538 5531 5525 5518 5512 5506 5500 5493 5487
5663 5660 5657 5654 5652 5649 5646 5642 5639 5636 5633 5630 5626 5622 5619 5615 5611 5607 5604 5600 5596 5591 5587 5582 5578 5573 5568 5564 5559 5553 5548 5542 5536 5530 5524 5518 5511 5505 5498 5493 5487 5480 5474
5656 5654 5651 5648 5645 5642 5638 5635 5632 5628 5625 5621 5618 5614 5610 5606 5602 5598 5594 5590 5586 5581 5577 5572 5567 5562 5557 5552 5547 5542 5536 5530 5523 5517 5511 5504 5498 5491 5485 5478 5473 5467 5462
5650 5647 5644 5641 5638 5634 5631 5627 5624 5620 5617 5613 5609 5605 5601 5597 5593 5589 5585 5581 5576 5572 5567 5562 5557 5551 5546 5540 5535 5529 5523 5516 5510 5503 5497 5490 5484 5477 5471 5465 5459 5454 5449
5643 5640 5636 5633 5630 5627 5623 5619 5616 5612 5608 5604 5600 5596 5592 5588 5583 5579 5575 5571 5566 5561 5556 5551 5546 5540 5534 5529 5522 5516 5509 5502 5496 5489 5482 5476 5470 5464 5458 5452 5446 5440 5434
5636 5632 5629 5625 5622 5618 5615 5611 5607 5603 5599 5595 5591 5587 5583 5578 5574 5569 5565 5560 5556 5550 5545 5539 5534 5528 5522 5516 5510 5504 5497 5489 5483 5476 5469 5462 5455 5449 5443 5438 5432 5426 5421
5628 5624 5621 5617 5613 5610 5606 5602 5598 5594 5590 5586 5582 5578 5573 5569 5564 5559 5554 5549 5544 5539 5534 5528 5522 5516 5511 5504 5498 5492 5485 5477 5469 5462 5455 5448 5442 5435 5429 5423 5417 5411 5407
5620 5616 5612 5608 5604 5601 5597 5593 5589 5585 5580 5576 5572 5568 5563 5559 5553 5548 5543 5538 5534 5528 5522 5516 5510 5504 5498 5491 5484 5478 5471 5464 5457 5450 5442 5435 5428 5422 5415 5408 5402 5396 5390
5611 5607 5603 5599 5595 5591 5588 5583 5579 5575 5571 5567 5562 5558 5553 5548 5543 5537 5532 5527 5522 5516 5511 5505 5499 5492 5485 5478 5471 5464 5457 5450 5443 5436 5429 5422 5415 5408 5401 5394 5387 5381 5375
5602 5598 5594 5590 5586 5582 5578 5574 5569 5565 5561 5557 5552 5547 5542 5537 5532 5526 5521 5515 5510 5505 5499 5493 5486 5479 5472 5465 5457 5450 5443 5436 5429 5422 5415 5408 5401 5394 5387 5381 5374 5367 5360
5593 5589 5585 5581 5576 5572 5568 5564 5560 5555 5551 5547 5542 5537 5532 5526 5521 5515 5510 5504 5498 5492 5487 5480 5474 5467 5460 5452 5445 5437 5429 5422 5415 5408 5401 5394 5387 5379 5373 5366 5360 5353 5346
5584 5580 5576 5571 5567 5562 5558 5554 5550 5545 5541 5536 5531 5526 5521 5515 5510 5504 5498 5492 5486 5480 5474 5468 5461 5454 5447 5440 5432 5424 5416 5408 5401 5394 5387 5380 5372 5365 5358 5351 5345 5339 5333
5575 5571 5566 5562 5557 5552 5548 5544 5540 5535 5530 5526 5520 5515 5510 5505 5498 5492 5487 5481 5475 5469 5462 5456 5449 5442 5435 5427 5419 5411 5403 5395 5388 5380 5373 5365 5358 5351 5344 5337 5331 5325 5319
5565 5561 5556 5552 5547 5543 5538 5534 5529 5525 5519 5514 5509 5504 5499 5493 5487 5481 5475 5469 5462 5456 5450 5443 5437 5429 5422 5414 5406 5398 5390 5382 5374 5367 5359 5351 5344 5337 5331 5324 5318 5311 5305
5554 5550 5546 5541 5537 5532 5528 5523 5518 5514 5508 5503 5498 5492 5487 5481 5475 5469 5462 5456 5449 5443 5437 5430 5423 5416 5408 5400 5392 5384 5377 5369 5361 5353 5345 5338 5330 5324 5317 5311 5305 5299 5293
5543 5539 5534 5530 5525 5521 5516 5512 5507 5502 5497 5492 5486 5480 5474 5469 5462 5456 5450 5443 5437 5430 5423 5416 5409 5402 5394 5386 5378 5371 5363 5355 5347 5340 5332 5324 5317 5311 5305 5298 5292 5286 5280
5531 5527 5523 5518 5514 5509 5505 5500 5495 5490 5485 5480 5474 5468 5462 5456 5449 5443 5436 5430 5424 5417 5410 5402 5395 5387 5380 5372 5364 5357 5349 5341 5334 5326 5319 5311 5305 5298 5292 5285 5279 5273 5267
5519 5515 5510 5506 5502 5497 5493 5488 5483 5478 5472 5467 5461 5456 5449 5443 5436 5429 5422 5416 5409 5402 5395 5388 5381 5373 5366 5358 5350 5342 5335 5327 5320 5312 5305 5298 5292 5285 5279 5273 5267 5261 5255
5505 5501 5497 5493 5489 5484 5480 5475 5470 5465 5459 5453 5448 5442 5435 5429 5423 5416 5409 5402 5395 5388 5381 5374 5367 5359 5351 5343 5335 5328 5320 5313 5306 5299 5292 5285 5279 5273 5266 5260 5255 5249 5243
5492 5488 5484 5479 5475 5471 5466 5461 5456 5451 5445 5439 5434 5427 5421 5414 5408 5401 5394 5387 5380 5373 5366 5359 5351 5344 5336 5328 5320 5313 5306 5299 5292 5285 5279 5272 5266 5260 5254 5248 5242 5236 5231
5477 5473 5469 5465 5460 5456 5451 5446 5441 5436 5430 5425 5419 5413 5406 5400 5393 5386 5379 5372 5365 5358 5350 5343 5335 5328 5320 5312 5305 5297 5291 5284 5278 5271 5265 5259 5253 5247 5241 5235 5230 5224 5219
5461 5457 5453 5449 5445 5440 5436 5431 5426 5420 5415 5409 5403 5398 5391 5385 5378 5371 5364 5356 5349 5342 5334 5326 5319 5312 5304 5297 5290 5283 5276 5270 5264 5257 5251 5245 5240 5234 5228 5223 5218 5213 5208
5446 5442 5438 5433 5429 5424 5420 5415 5410 5405 5400 5394 5388 5382 5376 5369 5362 5355 5348 5340 5333 5325 5318 5310 5303 5296 5290 5283 5276 5270 5263 5257 5250 5244 5238 5233 5228 5222 5217 5212 5207 5203 5198
5429 5425 5421 5417 5413 5408 5404 5399 5394 5389 5384 5378 5372 5365 5359 5352 5345 5338 5331 5324 5316 5309 5302 5295 5288 5281 5275 5269 5263 5256 5250 5244 5238 5232 5226 5221 5216 5211 5207 5202 5198 5193 5189